Location: M�nchen
(48.1404°N, 11.6043°E)
Time: 22:47:02
(UTC+01:00)

ISS - Pass Details

Date: 14 November 2017
Orbit: 402 x 407 km, 51.6° (Epoch: 23 November)

Event Time Altitude Azimuth Distance (km) Brightness Sun altitude
Exits shadow 05:45:06 38° 268° (W) 629 -3.4 -15.6°
Maximum altitude 05:46:03 58° 209° (SSW) 474 -3.7 -15.5°
Drops below altitude 10° 05:49:15 10° 129° (SE) 1,451 0.0 -14.9°
Sets 05:51:20 0° 125° (SE) 2,307 1.3 -14.6°
